Regional Weather Roundup
Issued by NWS

Home | Current Version | Previous Version | Text Only | Print | Product List | Glossary Off
Versions: 1 2 3 4 5 6 7 8 9 10 11 12 13 14 15 16 17 18 19 20 21 22 23 24 25 26 27 28 29 30 31 32 33 34 35 36 37 38 39 40 41 42 43 44 45 46 47 48

000
ASUS45 KBOU 301407
RWRCO

WEATHER ROUNDUP FOR COLORADO
NATIONAL WEATHER SERVICE DENVER/BOULDER CO
800 AM MDT TUE SEP 30 2014

NOTE: "FAIR" INDICATES FEW OR NO CLOUDS BELOW 12000 FEET WITH NO
SIGNIFICANT WEATHER AND/OR OBSTRUCTIONS TO VISIBILITY.

COZ001>005-013-030-031-301500-
...NORTHWEST COLORADO...

CITY           SKY/WX    TMP DP  RH WIND       PRES   REMARKS
CRAIG          CLOUDY    45  38  76 SW6       30.00R
HAYDEN         CLOUDY    45  36  70 NW5       30.00R
MEEKER         CLOUDY    42  39  89 CALM      30.02S
MOUNT WERNER   NOT AVBL
STEAMBOAT SPGS CLOUDY    42  39  89 CALM      30.01R
WALDEN         CLOUDY    37  34  87 SW16G22   29.98S
$$

COZ006>008-011-301500-
...WEST CENTRAL VALLEYS...

CITY           SKY/WX    TMP DP  RH WIND       PRES   REMARKS
GRAND JUNCTION CLOUDY    46  42  86 E8        30.01R
MONTROSE       PTCLDY    40  39  97 CALM      30.06R
EAGLE          CLOUDY    43  43 100 CALM      30.07R
RIFLE          CLOUDY    42  40  92 CALM      30.03R
DELTA          RAIN      44  42  95 E5        30.04R
NUCLA          PTCLDY    43  39  87 CALM      30.09R
$$

COZ017>023-064>068-301500-
...SOUTHWEST COLORADO...

CITY           SKY/WX    TMP DP  RH WIND       PRES   REMARKS
DURANGO        PTCLDY    37  35  92 E5        30.10R
CORTEZ         CLEAR     40  38  93 NE3       30.06S
PAGOSA SPRINGS MOSUNNY   35  35 100 CALM      30.12F
TELLURIDE      CLOUDY   N/A N/A N/A E5        30.14S
WOLF CREEK PAS SUNNY     25  25 100 SW16      30.21R WCI  12
$$

COZ009-010-012-014-032>034-037-058>063-301500-
...CENTRAL COLORADO...

CITY           SKY/WX    TMP DP  RH WIND       PRES   REMARKS
ASPEN          CLOUDY    39  35  86 VRB5      30.08R
BUENA VISTA    MOSUNNY   47  26  43 W7        30.03S
COPPER MTN     CLOUDY    30  27  86 W18G26    30.15S WCI  18
BERTHOUD PASS  CLOUDY    21  19  93 NW36G51   30.09R WCI   2
COTTONWOOD PAS PTSUNNY   41  23  48 W22G38    30.07F
GUNNISON       PTSUNNY   36  30  80 CALM      30.11S
KREMMLING      CLOUDY    41  34  75 W12       30.04S
LEADVILLE      CLOUDY    35  25  66 N7G22     30.10S WCI  29
MONARCH PASS   CLOUDY    27  27 100 MISG      30.21S FOG
SALIDA         MOSUNNY   48  32  54 SW18G26   30.09S
SUNLIGHT       CLOUDY    34  32  93 CALM      30.16R FOG
WILKERSON PASS NOT AVBL
$$

COZ069>075-301500-
...SAN LUIS VALLEY/SANGRE DE CRISTO MOUNTAINS...

CITY           SKY/WX    TMP DP  RH WIND       PRES   REMARKS
ALAMOSA        SUNNY     34  30  85 CALM      30.09S
LA VETA PASS   NOT AVBL
SAGUACHE       MOSUNNY   37  32  81 NE3       30.10R
$$

COZ035-036-038>040-301500-
...NORTHERN COLORADO FRONT RANGE...

CITY           SKY/WX    TMP DP  RH WIND       PRES   REMARKS
DENVER INTL AP MOSUNNY   50  38  63 SW12      29.84S
DMNS CITY PARK   N/A     49  39  70 S3G14     29.85R
AURORA         MOSUNNY   49  36  61 S7        29.87R
FRONT RANGE AP NOT AVBL
ERIE MUNI ARPT SUNNY     46  43  90 CALM      29.83R
BOULDER MUN AP SUNNY     46  41  81 SW6       29.83R
CENTENNIAL     MOSUNNY   49  37  63 S6        29.87S
BROOMFIELD     MOSUNNY   55  32  41 W9G17     29.85R
FORT COLLINS   MOSUNNY   45  43  93 N6        29.85R
LONGMONT       SUNNY     52  44  74 CALM      29.83S HAZE
$$

COZ041-046-047-076>085-087-088-301500-
...PIKES PEAK/PALMER DIVIDE AND SOUTHERN FOOTHILLS...

CITY           SKY/WX    TMP DP  RH WIND       PRES   REMARKS
COLO. SPRINGS  MOSUNNY   47  36  65 E6        29.92S
A. F. ACADEMY  SUNNY     46  31  56 SW6       29.93S
ELLICOTT       NOT AVBL
FALCON         SUNNY     43  34  70 CALM      29.95R
FORT CARSON    SUNNY     44  38  80 N7        29.91R
LIMON          SUNNY     44  41  89 CALM      29.90S
MONUMENT HILL  SUNNY     45  32  61 SW10      29.92S
TRINIDAD       SUNNY     47  33  58 W20       29.92F
$$

COZ042>045-048>051-090-091-301500-
...NORTHEAST COLORADO...

CITY           SKY/WX    TMP DP  RH WIND       PRES   REMARKS
GREELEY ARPT   SUNNY     46  39  76 NE3       29.84S
AKRON          MOSUNNY   50  43  77 S9        29.84S
BURLINGTON     SUNNY     51  44  77 S12       29.86F
WRAY           SUNNY     53  48  81 SW5       29.83S
STERLING       MOSUNNY   54  50  87 SW12      29.81R
HOLYOKE        SUNNY     54  48  82 SW10      29.81S
FORT MORGAN    MOSUNNY   49  44  85 CALM      29.84R
$$

COZ086-089-092>099-301500-
...SOUTHEAST COLORADO...

CITY           SKY/WX    TMP DP  RH WIND       PRES   REMARKS
PUEBLO         SUNNY     45  40  82 CALM      29.90S
LA JUNTA       SUNNY     49  45  86 SE5       29.88S
LAMAR          SUNNY     49  47  93 CALM      29.86S
SPRINGFIELD      N/A     48  46  93 NW7       29.89R
$$


USA.gov is the U.S. government's official web portal to all federal, state and local government web resources and services.